Погода в Палмерстон-Норт

Новая Зеландия     40°21′30″S   175°36′40″E
темп.,
°C
ветер,
м/с
пор.,
м/с
влажн.,
%
обл.,
%
осадки,
мм/ч
давл.,
гПа
погр.,
м
8 мая, сб
сб800:00+10всв2393100 0.0 103360
03:00+10всв1185100 0.0 103226
06:00+11всв1180100 0.0 103222
09:00+13св1167100 0.0 1033121
12:00+19сз254954 0.0 10301159
15:00+20зсз4751100 0.0 10281518
18:00+13сз1181100 0.0 102811
21:00+12ссв1181100 0.0 102828
9 мая, вс
вс900:00+14ссв1769100 0.0 1028275
03:00+15ссз2872100 0.0 1026554
06:00+16ссз41169100 0.0 1025835
09:00+17ссз41269100 0.0 1025891
12:00+20сз61261100 0.0 10231029
15:00+19сз51170100 0.1 1022924
18:00+17ссз51176100 0.3 1022843
21:00+18ссз51277100 0.0 1022740
10 мая, пн
пн1000:00+17сз41286100 0.1 1022800
03:00+17ссз4118717 0.1 1022751
06:00+17сз41080100 0.3 1022883
09:00+18сз41075100 0.1 1023905
12:00+20зсз51070100 0.1 10231267
15:00+20зсз4974100 0.1 10221109
18:00+18сз3989100 0.4 1022590
21:00+18ссз31083100 0.2 1022721
11 мая, вт
вт1100:00+18сз3107986 0.2 1022861
03:00+17ссз41279100 0.0 1021852
06:00+16ссз3118162 0.0 1020628
09:00+18ссз51468100 0.0 10191147
12:00+20ссз61659100 0.0 10181432
15:00+17ссз61585100 1.0 1016863
18:00+16ссз6158934 3.2 10161055
21:00+16ссз5159333 0.6 10151058
12 мая, ср
ср1200:00+17ссз6168558 0.9 10141237
03:00+17сз61593100 3.1 10121205
06:00+16ссз51391100 4.3 1012987
09:00+16сз61692100 1.6 10121198
12:00+14з41194100 9.9 1012886
15:00+13з3891100 0.3 1012513
18:00+11зсз41094100 1.0 1014672
21:00+10сз399097 0.3 1015389